| time (UTC) | temp F | wind direction | speed MPH | gust MPH | rain 1hr in | rain 24hr in | rain mn in | humidity % | barometer mb |
| 20260902072023 | 58 | 297 | 2.0 | 8.0 | 0.00 | 0.10 | 0.01 | 66 | 1016.5 |
| 20260902071534 | 58 | 305 | 3.0 | 8.0 | 0.00 | 0.10 | 0.01 | 66 | 1016.5 |
| 20260902071019 | 58 | 212 | 1.0 | 8.0 | 0.00 | 0.10 | 0.01 | 66 | 1016.6 |
| 20260902070518 | 58 | 208 | 0.0 | 8.0 | 0.00 | 0.10 | 0.01 | 65 | 1016.5 |
| 20260902070033 | 58 | 200 | 2.0 | 8.0 | 0.00 | 0.10 | 0.01 | 65 | 1016.7 |
| 20260902065519 | 59 | 234 | 2.0 | 6.0 | 0.00 | 0.10 | 0.01 | 65 | 1016.7 |
| 20260902065016 | 59 | 229 | 2.0 | 7.0 | 0.00 | 0.10 | 0.01 | 64 | 1016.6 |
| 20260902064532 | 59 | 224 | 3.0 | 8.0 | 0.00 | 0.10 | 0.01 | 64 | 1016.5 |
| 20260902064015 | 59 | 233 | 2.0 | 8.0 | 0.00 | 0.10 | 0.01 | 64 | 1016.5 |
| 20260902063522 | 59 | 227 | 2.0 | 8.0 | 0.00 | 0.10 | 0.01 | 63 | 1016.5 |
| 20260902063042 | 59 | 0 | 1.0 | 7.0 | 0.00 | 0.10 | 0.01 | 63 | 1016.5 |
| 20260902062523 | 59 | 210 | 2.0 | 7.0 | 0.00 | 0.14 | 0.01 | 63 | 1016.5 |
| 20260902062019 | 60 | 192 | 2.0 | 7.0 | 0.00 | 0.14 | 0.01 | 63 | 1016.5 |
| 20260902061548 | 60 | 271 | 1.0 | 6.0 | 0.00 | 0.14 | 0.01 | 62 | 1016.5 |
| 20260902061019 | 60 | 270 | 2.0 | 6.0 | 0.00 | 0.14 | 0.01 | 61 | 1016.5 |
| 20260902060518 | 60 | 271 | 2.0 | 7.0 | 0.00 | 0.14 | 0.01 | 61 | 1016.6 |
| 20260902060031 | 61 | 274 | 2.0 | 7.0 | 0.00 | 0.14 | 0.01 | 61 | 1016.6 |
| 20260902055519 | 61 | 260 | 1.0 | 6.0 | 0.00 | 0.14 | 0.01 | 61 | 1016.6 |
| 20260902055019 | 61 | 262 | 2.0 | 6.0 | 0.00 | 0.14 | 0.01 | 61 | 1016.6 |
| 20260902054535 | 61 | 259 | 2.0 | 8.0 | 0.00 | 0.14 | 0.01 | 60 | 1016.6 |
| 20260902054018 | 61 | 247 | 3.0 | 8.0 | 0.00 | 0.14 | 0.01 | 60 | 1016.6 |
| 20260902053518 | 61 | 247 | 2.0 | 5.0 | 0.00 | 0.14 | 0.01 | 60 | 1016.6 |
| 20260902053031 | 61 | 247 | 1.0 | 8.0 | 0.00 | 0.14 | 0.01 | 60 | 1016.7 |
| 20260902052522 | 61 | 259 | 2.0 | 8.0 | 0.00 | 0.14 | 0.01 | 59 | 1016.7 |
| 20260902052017 | 61 | 263 | 2.0 | 6.0 | 0.00 | 0.14 | 0.01 | 59 | 1016.8 |
| 20260902051534 | 61 | 269 | 1.0 | 6.0 | 0.00 | 0.14 | 0.01 | 60 | 1016.8 |
| 20260902051019 | 61 | 268 | 2.0 | 6.0 | 0.00 | 0.14 | 0.01 | 60 | 1016.8 |
| 20260902050519 | 61 | 255 | 0.0 | 6.0 | 0.00 | 0.14 | 0.01 | 59 | 1016.8 |
| 20260902050056 | 61 | 255 | 2.0 | 8.0 | 0.00 | 0.14 | 0.01 | 60 | 1016.9 |
| 20260902045518 | 61 | 260 | 2.0 | 8.0 | 0.00 | 0.14 | 0.01 | 59 | 1016.8 |
| 20260902045022 | 61 | 288 | 1.0 | 7.0 | 0.00 | 0.14 | 0.01 | 60 | 1016.9 |
| 20260902044536 | 61 | 286 | 2.0 | 7.0 | 0.00 | 0.14 | 0.01 | 59 | 1016.9 |
| 20260902044021 | 61 | 290 | 2.0 | 8.0 | 0.00 | 0.14 | 0.01 | 58 | 1016.9 |
| 20260902043518 | 61 | 300 | 2.0 | 8.0 | 0.00 | 0.14 | 0.01 | 58 | 1016.9 |
| 20260902043037 | 61 | 278 | 2.0 | 7.0 | 0.00 | 0.14 | 0.01 | 58 | 1017.0 |
| 20260902042521 | 61 | 282 | 2.0 | 7.0 | 0.00 | 0.14 | 0.01 | 58 | 1016.9 |
| 20260902042020 | 61 | 282 | 2.0 | 7.0 | 0.00 | 0.14 | 0.01 | 58 | 1016.8 |
| 20260902041535 | 61 | 303 | 2.0 | 11.0 | 0.00 | 0.14 | 0.01 | 59 | 1017.1 |
| 20260902041018 | 62 | 281 | 3.0 | 11.0 | 0.00 | 0.14 | 0.01 | 58 | 1017.0 |
| 20260902040519 | 62 | 255 | 2.0 | 9.0 | 0.00 | 0.14 | 0.01 | 57 | 1017.0 |
| 20260902040035 | 62 | 257 | 3.0 | 10.0 | 0.00 | 0.14 | 0.01 | 58 | 1017.2 |
| 20260902035518 | 62 | 260 | 4.0 | 10.0 | 0.00 | 0.14 | 0.01 | 59 | 1017.3 |
| 20260902035022 | 62 | 257 | 5.0 | 10.0 | 0.00 | 0.14 | 0.01 | 59 | 1017.3 |
| 20260902034532 | 62 | 277 | 2.0 | 9.0 | 0.00 | 0.14 | 0.01 | 59 | 1017.2 |
| 20260902034023 | 62 | 304 | 3.0 | 9.0 | 0.00 | 0.14 | 0.01 | 60 | 1017.2 |
| 20260902033515 | 62 | 250 | 2.0 | 10.0 | 0.00 | 0.14 | 0.01 | 61 | 1017.3 |
| 20260902033052 | 62 | 286 | 1.0 | 10.0 | 0.00 | 0.14 | 0.01 | 60 | 1017.3 |
| 20260902032520 | 62 | 280 | 3.0 | 10.0 | 0.00 | 0.14 | 0.01 | 60 | 1017.2 |
| 20260902032023 | 63 | 0 | 2.0 | 10.0 | 0.00 | 0.14 | 0.01 | 60 | 1017.3 |
| 20260902031532 | 63 | 230 | 3.0 | 8.0 | 0.00 | 0.14 | 0.01 | 60 | 1017.3 |
| 20260902031019 | 63 | 228 | 2.0 | 9.0 | 0.00 | 0.14 | 0.01 | 61 | 1017.4 |
| 20260902030518 | 63 | 200 | 4.0 | 10.0 | 0.00 | 0.14 | 0.01 | 61 | 1017.4 |
| 20260902030034 | 63 | 268 | 3.0 | 10.0 | 0.00 | 0.14 | 0.01 | 61 | 1017.4 |
| 20260902025520 | 63 | 298 | 3.0 | 8.0 | 0.00 | 0.14 | 0.01 | 62 | 1017.4 |
| 20260902025016 | 62 | 307 | 3.0 | 9.0 | 0.00 | 0.14 | 0.01 | 62 | 1017.4 |
| 20260902024543 | 61 | 315 | 2.0 | 9.0 | 0.00 | 0.14 | 0.01 | 62 | 1017.5 |
| 20260902024018 | 61 | 261 | 2.0 | 9.0 | 0.00 | 0.14 | 0.01 | 62 | 1017.7 |
| 20260902023515 | 61 | 259 | 2.0 | 9.0 | 0.00 | 0.14 | 0.01 | 62 | 1017.8 |
| 20260902023036 | 61 | 234 | 2.0 | 5.0 | 0.00 | 0.14 | 0.01 | 63 | 1017.9 |
| 20260902022518 | 61 | 252 | 1.0 | 6.0 | 0.00 | 0.14 | 0.01 | 63 | 1017.8 |
| 20260902022019 | 61 | 255 | 2.0 | 6.0 | 0.00 | 0.14 | 0.01 | 63 | 1017.7 |
| 20260902021534 | 61 | 271 | 2.0 | 6.0 | 0.00 | 0.14 | 0.01 | 64 | 1017.8 |
| 20260902021019 | 61 | 265 | 2.0 | 6.0 | 0.00 | 0.14 | 0.01 | 64 | 1017.9 |
| 20260902020519 | 60 | 281 | 1.0 | 6.0 | 0.00 | 0.14 | 0.01 | 65 | 1017.9 |
| 20260902020038 | 60 | 281 | 2.0 | 7.0 | 0.00 | 0.14 | 0.01 | 65 | 1018.1 |
| 20260902015519 | 60 | 279 | 2.0 | 7.0 | 0.00 | 0.14 | 0.01 | 65 | 1018.0 |
| 20260902015018 | 60 | 250 | 1.0 | 6.0 | 0.00 | 0.14 | 0.01 | 66 | 1018.1 |
| 20260902014534 | 60 | 263 | 2.0 | 6.0 | 0.00 | 0.14 | 0.01 | 67 | 1018.2 |
| 20260902014015 | 60 | 0 | 1.0 | 8.0 | 0.00 | 0.14 | 0.01 | 67 | 1018.2 |
| 20260902013516 | 60 | 271 | 2.0 | 8.0 | 0.00 | 0.14 | 0.01 | 67 | 1018.2 |
| 20260902013035 | 60 | 259 | 4.0 | 8.0 | 0.00 | 0.14 | 0.01 | 67 | 1018.3 |
| 20260902012521 | 60 | 263 | 3.0 | 7.0 | 0.00 | 0.14 | 0.01 | 68 | 1018.5 |
| 20260902012022 | 60 | 257 | 3.0 | 7.0 | 0.00 | 0.14 | 0.01 | 68 | 1018.4 |
| 20260902011534 | 60 | 262 | 1.0 | 7.0 | 0.00 | 0.14 | 0.01 | 69 | 1018.5 |
| 20260902011016 | 59 | 268 | 3.0 | 7.0 | 0.00 | 0.14 | 0.01 | 69 | 1018.6 |
| 20260902010521 | 59 | 260 | 2.0 | 8.0 | 0.00 | 0.14 | 0.01 | 70 | 1018.6 |
| 20260902010031 | 59 | 262 | 2.0 | 8.0 | 0.00 | 0.14 | 0.01 | 70 | 1018.7 |
| 20260902005520 | 59 | 266 | 3.0 | 7.0 | 0.00 | 0.14 | 0.01 | 71 | 1018.6 |
| 20260902005016 | 59 | 267 | 2.0 | 6.0 | 0.00 | 0.14 | 0.01 | 72 | 1018.8 |
| 20260902004533 | 58 | 266 | 2.0 | 6.0 | 0.00 | 0.14 | 0.01 | 72 | 1018.9 |
| 20260902004015 | 58 | 263 | 2.0 | 7.0 | 0.00 | 0.14 | 0.01 | 73 | 1018.9 |
| 20260902003515 | 58 | 265 | 2.0 | 7.0 | 0.00 | 0.14 | 0.01 | 74 | 1018.9 |
| 20260902003035 | 58 | 271 | 2.0 | 7.0 | 0.00 | 0.14 | 0.01 | 75 | 1019.0 |
| 20260902002521 | 57 | 267 | 1.0 | 9.0 | 0.00 | 0.14 | 0.01 | 76 | 1018.9 |
| 20260902002019 | 57 | 265 | 2.0 | 9.0 | 0.00 | 0.14 | 0.01 | 77 | 1019.2 |
| 20260902001534 | 58 | 261 | 3.0 | 9.0 | 0.00 | 0.14 | 0.01 | 78 | 1019.1 |
| 20260902001019 | 58 | 279 | 2.0 | 8.0 | 0.00 | 0.14 | 0.01 | 80 | 1019.1 |
| 20260902000520 | 57 | 282 | 3.0 | 8.0 | 0.00 | 0.14 | 0.01 | 81 | 1018.9 |
| 20260902000033 | 57 | 289 | 2.0 | 5.0 | 0.00 | 0.14 | 0.01 | 83 | 1019.1 |
| 20260901235518 | 56 | 287 | 2.0 | 7.0 | 0.00 | 0.14 | 0.01 | 84 | 1019.0 |
| 20260901235015 | 56 | 291 | 1.0 | 7.0 | 0.00 | 0.14 | 0.01 | 84 | 1019.1 |
| 20260901234533 | 55 | 289 | 1.0 | 9.0 | 0.00 | 0.14 | 0.01 | 85 | 1019.1 |
| 20260901234016 | 55 | 0 | 1.0 | 9.0 | 0.00 | 0.14 | 0.01 | 85 | 1019.1 |
| 20260901233518 | 55 | 298 | 2.0 | 9.0 | 0.00 | 0.14 | 0.01 | 86 | 1019.1 |
| 20260901233039 | 55 | 291 | 2.0 | 7.0 | 0.00 | 0.14 | 0.01 | 87 | 1019.1 |
| 20260901232519 | 55 | 271 | 1.0 | 7.0 | 0.00 | 0.14 | 0.01 | 87 | 1019.3 |
| 20260901232019 | 55 | 277 | 2.0 | 7.0 | 0.00 | 0.14 | 0.01 | 87 | 1019.4 |
| 20260901231536 | 54 | 280 | 2.0 | 7.0 | 0.00 | 0.14 | 0.01 | 87 | 1019.4 |
| 20260901231019 | 54 | 284 | 2.0 | 7.0 | 0.00 | 0.14 | 0.01 | 88 | 1019.3 |
| 20260901230517 | 54 | 277 | 2.0 | 5.0 | 0.00 | 0.14 | 0.01 | 88 | 1019.7 |
| 20260901230033 | 54 | 289 | 2.0 | 5.0 | 0.00 | 0.14 | 0.01 | 88 | 1019.6 |
| 20260901225517 | 54 | 294 | 2.0 | 4.0 | 0.00 | 0.14 | 0.01 | 88 | 1019.6 |
| 20260901225017 | 54 | 296 | 0.0 | 3.0 | 0.00 | 0.14 | 0.01 | 88 | 1019.6 |
| 20260901224537 | 54 | 0 | 0.0 | 3.0 | 0.00 | 0.14 | 0.01 | 88 | 1019.7 |
| 20260901224018 | 54 | 296 | 0.0 | 3.0 | 0.00 | 0.14 | 0.01 | 88 | 1019.6 |
| 20260901223517 | 54 | 0 | 0.0 | 2.0 | 0.00 | 0.14 | 0.01 | 88 | 1019.6 |
| 20260901223032 | 54 | 296 | 0.0 | 2.0 | 0.00 | 0.14 | 0.01 | 88 | 1019.4 |
| 20260901222518 | 54 | 0 | 0.0 | 1.0 | 0.00 | 0.14 | 0.01 | 88 | 1019.3 |
| 20260901222018 | 54 | 0 | 0.0 | 0.0 | 0.00 | 0.14 | 0.01 | 88 | 1019.3 |
| 20260901221534 | 54 | 0 | 0.0 | 0.0 | 0.00 | 0.14 | 0.01 | 88 | 1019.3 |
| 20260901221019 | 54 | 0 | 0.0 | 0.0 | 0.00 | 0.14 | 0.01 | 88 | 1019.2 |
| 20260901220518 | 53 | 0 | 0.0 | 0.0 | 0.00 | 0.14 | 0.01 | 88 | 1019.2 |
| 20260901220033 | 53 | 0 | 0.0 | 0.0 | 0.00 | 0.14 | 0.01 | 88 | 1019.2 |
| 20260901215516 | 53 | 0 | 0.0 | 0.0 | 0.00 | 0.14 | 0.01 | 88 | 1019.2 |
| 20260901215016 | 53 | 0 | 0.0 | 0.0 | 0.00 | 0.14 | 0.01 | 88 | 1019.1 |
| 20260901214543 | 53 | 0 | 0.0 | 0.0 | 0.00 | 0.14 | 0.01 | 88 | 1019.2 |
| 20260901214017 | 53 | 0 | 0.0 | 0.0 | 0.00 | 0.14 | 0.01 | 88 | 1019.1 |
| 20260901213519 | 53 | 0 | 0.0 | 0.0 | 0.00 | 0.14 | 0.01 | 88 | 1019.1 |
| 20260901213034 | 53 | 0 | 0.0 | 0.0 | 0.00 | 0.14 | 0.01 | 88 | 1018.9 |
| 20260901212516 | 53 | 0 | 0.0 | 0.0 | 0.00 | 0.14 | 0.01 | 87 | 1018.9 |
| 20260901212016 | 53 | 0 | 0.0 | 0.0 | 0.00 | 0.14 | 0.01 | 87 | 1018.9 |
| 20260901211534 | 53 | 0 | 0.0 | 0.0 | 0.00 | 0.14 | 0.01 | 87 | 1018.8 |
| 20260901211017 | 53 | 0 | 0.0 | 0.0 | 0.00 | 0.14 | 0.01 | 87 | 1018.9 |
| 20260901210518 | 53 | 0 | 0.0 | 0.0 | 0.00 | 0.14 | 0.01 | 87 | 1018.8 |
| 20260901210031 | 53 | 0 | 0.0 | 0.0 | 0.00 | 0.14 | 0.01 | 87 | 1018.6 |
| 20260901205516 | 53 | 0 | 0.0 | 0.0 | 0.00 | 0.14 | 0.01 | 87 | 1018.5 |
| 20260901205016 | 53 | 0 | 0.0 | 0.0 | 0.00 | 0.14 | 0.01 | 87 | 1018.5 |
| 20260901204535 | 53 | 0 | 0.0 | 0.0 | 0.00 | 0.14 | 0.01 | 87 | 1018.4 |
| 20260901204023 | 54 | 0 | 0.0 | 0.0 | 0.00 | 0.14 | 0.01 | 87 | 1018.4 |
| 20260901203520 | 54 | 0 | 0.0 | 0.0 | 0.00 | 0.14 | 0.01 | 87 | 1018.3 |
| 20260901203034 | 54 | 0 | 0.0 | 0.0 | 0.00 | 0.14 | 0.01 | 87 | 1018.3 |
| 20260901202516 | 54 | 0 | 0.0 | 0.0 | 0.00 | 0.13 | 0.00 | 87 | 1018.3 |
| 20260901202016 | 54 | 0 | 0.0 | 0.0 | 0.00 | 0.13 | 0.00 | 87 | 1018.1 |
| 20260901201533 | 54 | 0 | 0.0 | 0.0 | 0.00 | 0.13 | 0.00 | 87 | 1018.3 |
| 20260901201019 | 54 | 0 | 0.0 | 0.0 | 0.00 | 0.13 | 0.00 | 87 | 1018.3 |
| 20260901200516 | 54 | 0 | 0.0 | 0.0 | 0.00 | 0.13 | 0.00 | 87 | 1018.2 |
| 20260901200041 | 54 | 0 | 0.0 | 0.0 | 0.00 | 0.13 | 0.00 | 87 | 1018.2 |
| 20260901195518 | 54 | 0 | 0.0 | 0.0 | 0.00 | 0.13 | 0.00 | 87 | 1018.0 |
| 20260901195022 | 54 | 0 | 0.0 | 0.0 | 0.00 | 0.13 | 0.00 | 87 | 1018.1 |
| 20260901194541 | 54 | 0 | 0.0 | 0.0 | 0.00 | 0.13 | 0.00 | 87 | 1018.0 |
| 20260901194020 | 54 | 0 | 0.0 | 0.0 | 0.00 | 0.13 | 0.00 | 87 | 1017.9 |
| 20260901193519 | 55 | 0 | 0.0 | 0.0 | 0.00 | 0.13 | 0.00 | 87 | 1017.9 |
| 20260901193035 | 55 | 0 | 0.0 | 0.0 | 0.00 | 0.13 | 0.00 | 87 | 1017.9 |
| 20260901192519 | 55 | 0 | 0.0 | 0.0 | 0.00 | 0.13 | 0.00 | 87 | 1017.9 |
| 20260901192016 | 54 | 0 | 0.0 | 0.0 | 0.00 | 0.13 | 0.00 | 87 | 1018.1 |
| 20260901191540 | 54 | 0 | 0.0 | 0.0 | 0.00 | 0.13 | 0.00 | 87 | 1017.8 |
| 20260901191016 | 54 | 0 | 0.0 | 0.0 | 0.00 | 0.13 | 0.00 | 87 | 1018.0 |
| 20260901190516 | 54 | 0 | 0.0 | 0.0 | 0.00 | 0.13 | 0.00 | 87 | 1017.9 |
| 20260901190042 | 54 | 0 | 0.0 | 0.0 | 0.00 | 0.13 | 0.00 | 87 | 1018.0 |
| 20260901185519 | 54 | 0 | 0.0 | 0.0 | 0.00 | 0.13 | 0.00 | 87 | 1018.0 |
| 20260901185015 | 54 | 0 | 0.0 | 0.0 | 0.00 | 0.13 | 0.00 | 87 | 1018.0 |
| 20260901184535 | 54 | 0 | 0.0 | 0.0 | 0.00 | 0.12 | 0.00 | 86 | 1018.0 |
| 20260901184021 | 54 | 0 | 0.0 | 0.0 | 0.00 | 0.12 | 0.00 | 86 | 1017.8 |
| 20260901183519 | 54 | 0 | 0.0 | 0.0 | 0.00 | 0.12 | 0.00 | 86 | 1017.9 |
| 20260901183034 | 54 | 0 | 0.0 | 0.0 | 0.00 | 0.12 | 0.00 | 86 | 1017.7 |
| 20260901182520 | 54 | 0 | 0.0 | 0.0 | 0.00 | 0.12 | 0.00 | 86 | 1017.8 |
| 20260901182019 | 54 | 0 | 0.0 | 0.0 | 0.00 | 0.12 | 0.00 | 86 | 1017.8 |
| 20260901181533 | 54 | 0 | 0.0 | 0.0 | 0.00 | 0.12 | 0.00 | 86 | 1017.7 |
| 20260901181016 | 53 | 0 | 0.0 | 0.0 | 0.00 | 0.12 | 0.00 | 86 | 1017.7 |
| 20260901180516 | 53 | 0 | 0.0 | 0.0 | 0.00 | 0.12 | 0.00 | 85 | 1017.5 |
| 20260901180034 | 53 | 0 | 0.0 | 0.0 | 0.00 | 0.12 | 0.00 | 86 | 1017.5 |
| 20260901175520 | 53 | 0 | 0.0 | 0.0 | 0.00 | 0.12 | 0.00 | 85 | 1017.6 |
| 20260901175017 | 53 | 0 | 0.0 | 0.0 | 0.00 | 0.12 | 0.00 | 85 | 1017.6 |
| 20260901174540 | 53 | 0 | 0.0 | 0.0 | 0.00 | 0.12 | 0.00 | 85 | 1017.7 |
| 20260901174026 | 53 | 0 | 0.0 | 0.0 | 0.00 | 0.12 | 0.00 | 85 | 1017.7 |
| 20260901173519 | 53 | 0 | 0.0 | 0.0 | 0.00 | 0.12 | 0.00 | 85 | 1017.7 |
| 20260901173034 | 54 | 0 | 0.0 | 0.0 | 0.00 | 0.12 | 0.00 | 85 | 1017.7 |
| 20260901172515 | 54 | 0 | 0.0 | 0.0 | 0.00 | 0.12 | 0.00 | 85 | 1017.9 |
| 20260901172020 | 54 | 0 | 0.0 | 0.0 | 0.00 | 0.12 | 0.00 | 85 | 1017.9 |
| 20260901171542 | 54 | 0 | 0.0 | 0.0 | 0.00 | 0.12 | 0.00 | 85 | 1017.8 |
| 20260901171019 | 54 | 0 | 0.0 | 0.0 | 0.00 | 0.12 | 0.00 | 85 | 1017.9 |
| 20260901170525 | 54 | 0 | 0.0 | 0.0 | 0.00 | 0.12 | 0.00 | 85 | 1018.1 |
| 20260901170035 | 55 | 0 | 0.0 | 0.0 | 0.00 | 0.12 | 0.00 | 85 | 1018.1 |
| 20260901165520 | 55 | 0 | 0.0 | 0.0 | 0.00 | 0.12 | 0.00 | 85 | 1017.9 |
| 20260901165020 | 55 | 0 | 0.0 | 0.0 | 0.00 | 0.12 | 0.00 | 85 | 1018.0 |
| 20260901164533 | 55 | 0 | 0.0 | 0.0 | 0.00 | 0.12 | 0.00 | 85 | 1018.1 |
| 20260901164020 | 55 | 0 | 0.0 | 0.0 | 0.00 | 0.12 | 0.00 | 85 | 1018.0 |
| 20260901163520 | 55 | 0 | 0.0 | 0.0 | 0.00 | 0.12 | 0.00 | 85 | 1018.1 |
| 20260901163035 | 55 | 0 | 0.0 | 0.0 | 0.00 | 0.12 | 0.00 | 85 | 1018.1 |
| 20260901162519 | 55 | 0 | 0.0 | 0.0 | 0.00 | 0.12 | 0.00 | 85 | 1018.2 |
| 20260901162016 | 55 | 0 | 0.0 | 0.0 | 0.00 | 0.12 | 0.00 | 85 | 1018.1 |
| 20260901161540 | 55 | 0 | 0.0 | 0.0 | 0.00 | 0.12 | 0.00 | 85 | 1018.1 |
| 20260901161019 | 55 | 0 | 0.0 | 0.0 | 0.00 | 0.12 | 0.00 | 85 | 1018.1 |
| 20260901160517 | 55 | 0 | 0.0 | 0.0 | 0.00 | 0.12 | 0.00 | 85 | 1018.1 |
| 20260901160035 | 55 | 0 | 0.0 | 0.0 | 0.00 | 0.12 | 0.00 | 85 | 1018.2 |
| 20260901155519 | 55 | 0 | 0.0 | 0.0 | 0.00 | 0.12 | 0.00 | 85 | 1018.0 |
| 20260901155016 | 55 | 0 | 0.0 | 0.0 | 0.00 | 0.12 | 0.00 | 85 | 1018.1 |
| 20260901154535 | 56 | 0 | 0.0 | 0.0 | 0.00 | 0.12 | 0.00 | 85 | 1018.2 |
| 20260901154018 | 56 | 0 | 0.0 | 0.0 | 0.00 | 0.12 | 0.00 | 85 | 1018.1 |
| 20260901153519 | 56 | 0 | 0.0 | 0.0 | 0.00 | 0.12 | 0.00 | 85 | 1018.1 |
| 20260901153034 | 56 | 0 | 0.0 | 0.0 | 0.00 | 0.12 | 0.00 | 85 | 1018.0 |
| 20260901152515 | 56 | 0 | 0.0 | 0.0 | 0.00 | 0.12 | 0.00 | 85 | 1017.9 |
| 20260901152023 | 57 | 0 | 0.0 | 0.0 | 0.00 | 0.12 | 0.00 | 85 | 1018.0 |
| 20260901151540 | 57 | 0 | 0.0 | 0.0 | 0.00 | 0.12 | 0.00 | 85 | 1018.0 |
| 20260901151020 | 57 | 0 | 0.0 | 0.0 | 0.00 | 0.12 | 0.00 | 85 | 1018.0 |
| 20260901150519 | 57 | 0 | 0.0 | 0.0 | 0.00 | 0.12 | 0.00 | 85 | 1018.1 |
| 20260901150038 | 57 | 0 | 0.0 | 0.0 | 0.00 | 0.12 | 0.00 | 85 | 1018.1 |
| 20260901145516 | 57 | 0 | 0.0 | 0.0 | 0.00 | 0.12 | 0.00 | 85 | 1018.2 |
| 20260901145016 | 58 | 0 | 0.0 | 0.0 | 0.00 | 0.12 | 0.00 | 85 | 1018.1 |
| 20260901144534 | 58 | 0 | 0.0 | 0.0 | 0.00 | 0.12 | 0.00 | 85 | 1018.0 |
| 20260901144016 | 58 | 0 | 0.0 | 0.0 | 0.00 | 0.12 | 0.00 | 85 | 1018.0 |
| 20260901143521 | 58 | 0 | 0.0 | 0.0 | 0.00 | 0.12 | 0.00 | 85 | 1017.9 |
| 20260901143037 | 58 | 0 | 0.0 | 0.0 | 0.00 | 0.12 | 0.00 | 85 | 1017.9 |
| 20260901142519 | 58 | 0 | 0.0 | 0.0 | 0.00 | 0.12 | 0.12 | 85 | 1017.9 |
| 20260901142016 | 58 | 0 | 0.0 | 0.0 | 0.00 | 0.12 | 0.12 | 85 | 1017.9 |
| 20260901141534 | 59 | 0 | 0.0 | 0.0 | 0.00 | 0.12 | 0.12 | 85 | 1018.0 |
| 20260901141016 | 59 | 0 | 0.0 | 2.0 | 0.00 | 0.12 | 0.12 | 85 | 1018.0 |
| 20260901140519 | 59 | 0 | 0.0 | 2.0 | 0.00 | 0.12 | 0.12 | 85 | 1018.0 |
| 20260901140104 | 59 | 0 | 0.0 | 3.0 | 0.00 | 0.12 | 0.12 | 85 | 1018.0 |
| 20260901135520 | 59 | 0 | 0.0 | 3.0 | 0.00 | 0.12 | 0.12 | 85 | 1018.1 |
| 20260901135019 | 59 | 296 | 0.0 | 3.0 | 0.00 | 0.12 | 0.12 | 85 | 1018.0 |
| 20260901134538 | 59 | 0 | 0.0 | 3.0 | 0.00 | 0.12 | 0.12 | 85 | 1018.0 |
| 20260901134018 | 59 | 296 | 0.0 | 2.0 | 0.00 | 0.12 | 0.12 | 84 | 1018.1 |
| 20260901133516 | 59 | 0 | 0.0 | 0.0 | 0.00 | 0.12 | 0.12 | 84 | 1018.1 |
| 20260901133036 | 59 | 0 | 0.0 | 0.0 | 0.00 | 0.12 | 0.12 | 84 | 1018.2 |
| 20260901132521 | 59 | 0 | 0.0 | 1.0 | 0.00 | 0.12 | 0.12 | 84 | 1018.3 |
| 20260901132018 | 58 | 0 | 0.0 | 1.0 | 0.00 | 0.12 | 0.12 | 84 | 1018.2 |
| 20260901131537 | 58 | 0 | 0.0 | 1.0 | 0.00 | 0.12 | 0.12 | 84 | 1018.2 |
| 20260901131018 | 58 | 296 | 0.0 | 1.0 | 0.00 | 0.12 | 0.12 | 84 | 1018.2 |
| 20260901130526 | 58 | 0 | 0.0 | 0.0 | 0.00 | 0.12 | 0.12 | 84 | 1018.2 |
| 20260901130036 | 58 | 0 | 0.0 | 0.0 | 0.00 | 0.12 | 0.12 | 84 | 1018.3 |
| 20260901125520 | 58 | 0 | 0.0 | 0.0 | 0.00 | 0.12 | 0.12 | 83 | 1018.3 |
| 20260901125019 | 58 | 0 | 0.0 | 0.0 | 0.00 | 0.12 | 0.12 | 84 | 1018.4 |
| 20260901124535 | 59 | 0 | 0.0 | 0.0 | 0.00 | 0.12 | 0.12 | 84 | 1018.4 |
| 20260901124019 | 59 | 0 | 0.0 | 0.0 | 0.00 | 0.12 | 0.12 | 84 | 1018.4 |
| 20260901123520 | 59 | 0 | 0.0 | 0.0 | 0.00 | 0.12 | 0.12 | 84 | 1018.4 |
| 20260901123035 | 59 | 0 | 0.0 | 0.0 | 0.00 | 0.12 | 0.12 | 84 | 1018.5 |
| 20260901122516 | 59 | 0 | 0.0 | 0.0 | 0.00 | 0.12 | 0.12 | 84 | 1018.4 |
| 20260901122016 | 59 | 0 | 0.0 | 0.0 | 0.00 | 0.12 | 0.12 | 84 | 1018.4 |
| 20260901121553 | 59 | 0 | 0.0 | 0.0 | 0.00 | 0.12 | 0.12 | 84 | 1018.4 |
| 20260901121015 | 59 | 0 | 0.0 | 0.0 | 0.00 | 0.12 | 0.12 | 84 | 1018.4 |
| 20260901120521 | 59 | 0 | 0.0 | 0.0 | 0.00 | 0.12 | 0.12 | 84 | 1018.5 |
| 20260901120035 | 59 | 0 | 0.0 | 0.0 | 0.00 | 0.12 | 0.12 | 84 | 1018.6 |
| 20260901115523 | 59 | 0 | 0.0 | 0.0 | 0.00 | 0.12 | 0.12 | 84 | 1018.4 |
| 20260901115020 | 59 | 0 | 0.0 | 0.0 | 0.00 | 0.12 | 0.12 | 84 | 1018.5 |
| 20260901114534 | 59 | 0 | 0.0 | 0.0 | 0.00 | 0.12 | 0.12 | 84 | 1018.4 |
| 20260901114016 | 60 | 0 | 0.0 | 0.0 | 0.00 | 0.12 | 0.12 | 84 | 1018.3 |
| 20260901113516 | 60 | 0 | 0.0 | 0.0 | 0.00 | 0.12 | 0.12 | 84 | 1018.2 |
| 20260901113038 | 60 | 0 | 0.0 | 0.0 | 0.00 | 0.12 | 0.12 | 84 | 1018.0 |
| 20260901112519 | 60 | 0 | 0.0 | 1.0 | 0.00 | 0.12 | 0.12 | 84 | 1018.0 |
| 20260901112016 | 60 | 0 | 0.0 | 1.0 | 0.00 | 0.12 | 0.12 | 84 | 1018.0 |
| 20260901111535 | 60 | 0 | 0.0 | 1.0 | 0.00 | 0.12 | 0.12 | 84 | 1018.0 |
| 20260901111021 | 60 | 0 | 0.0 | 0.0 | 0.00 | 0.12 | 0.12 | 84 | 1018.0 |
| 20260901110518 | 60 | 0 | 0.0 | 2.0 | 0.00 | 0.12 | 0.12 | 84 | 1017.9 |
| 20260901110037 | 60 | 0 | 0.0 | 2.0 | 0.00 | 0.12 | 0.12 | 84 | 1017.9 |
| 20260901105515 | 60 | 0 | 0.0 | 4.0 | 0.00 | 0.12 | 0.12 | 84 | 1018.0 |
| 20260901105018 | 60 | 296 | 0.0 | 4.0 | 0.00 | 0.12 | 0.12 | 84 | 1017.9 |
| 20260901104538 | 60 | 296 | 1.0 | 4.0 | 0.00 | 0.12 | 0.12 | 84 | 1017.9 |
| 20260901104017 | 60 | 296 | 1.0 | 4.0 | 0.00 | 0.12 | 0.12 | 84 | 1018.0 |
| 20260901103518 | 59 | 297 | 0.0 | 4.0 | 0.00 | 0.12 | 0.12 | 84 | 1017.9 |
| 20260901103032 | 59 | 297 | 1.0 | 4.0 | 0.00 | 0.12 | 0.12 | 84 | 1017.9 |
| 20260901102516 | 59 | 306 | 1.0 | 4.0 | 0.00 | 0.12 | 0.12 | 84 | 1017.8 |
| 20260901102018 | 59 | 0 | 0.0 | 5.0 | 0.00 | 0.12 | 0.12 | 84 | 1017.8 |
| 20260901101535 | 59 | 311 | 1.0 | 9.0 | 0.00 | 0.12 | 0.12 | 84 | 1017.7 |
| 20260901101020 | 59 | 315 | 1.0 | 9.0 | 0.00 | 0.12 | 0.12 | 84 | 1017.7 |
| 20260901100516 | 59 | 0 | 0.0 | 1.0 | 0.00 | 0.12 | 0.12 | 84 | 1017.6 |
| 20260901100038 | 59 | 0 | 0.0 | 2.0 | 0.00 | 0.12 | 0.12 | 84 | 1017.5 |
| 20260901095516 | 59 | 0 | 0.0 | 3.0 | 0.00 | 0.12 | 0.12 | 84 | 1017.4 |
| 20260901095016 | 59 | 0 | 0.0 | 3.0 | 0.00 | 0.12 | 0.12 | 84 | 1017.4 |
| 20260901094534 | 59 | 34 | 1.0 | 3.0 | 0.00 | 0.12 | 0.12 | 83 | 1017.2 |
| 20260901094018 | 59 | 34 | 0.0 | 3.0 | 0.00 | 0.12 | 0.12 | 83 | 1017.1 |
| 20260901093517 | 59 | 0 | 0.0 | 3.0 | 0.00 | 0.12 | 0.12 | 83 | 1016.9 |
| 20260901093035 | 59 | 0 | 1.0 | 4.0 | 0.00 | 0.12 | 0.12 | 83 | 1016.8 |
| 20260901092522 | 59 | 35 | 0.0 | 4.0 | 0.00 | 0.12 | 0.12 | 83 | 1016.6 |
| 20260901092019 | 59 | 0 | 0.0 | 4.0 | 0.00 | 0.12 | 0.12 | 83 | 1016.3 |
| 20260901091535 | 59 | 38 | 1.0 | 4.0 | 0.00 | 0.12 | 0.12 | 83 | 1016.4 |
| 20260901091015 | 59 | 0 | 0.0 | 4.0 | 0.00 | 0.12 | 0.12 | 83 | 1016.2 |
| 20260901090522 | 59 | 38 | 0.0 | 4.0 | 0.00 | 0.12 | 0.12 | 83 | 1016.0 |
| 20260901090039 | 59 | 37 | 0.0 | 8.0 | 0.00 | 0.12 | 0.12 | 83 | 1016.1 |
| 20260901085515 | 59 | 37 | 1.0 | 8.0 | 0.00 | 0.12 | 0.12 | 83 | 1016.2 |
| 20260901085018 | 59 | 40 | 1.0 | 8.0 | 0.00 | 0.12 | 0.12 | 83 | 1016.1 |
| 20260901084533 | 59 | 67 | 1.0 | 5.0 | 0.00 | 0.12 | 0.12 | 82 | 1016.1 |
| 20260901084017 | 60 | 0 | 0.0 | 4.0 | 0.00 | 0.12 | 0.12 | 82 | 1016.1 |
| 20260901083517 | 60 | 76 | 1.0 | 4.0 | 0.00 | 0.12 | 0.12 | 82 | 1016.0 |
| 20260901083037 | 60 | 0 | 0.0 | 3.0 | 0.00 | 0.12 | 0.12 | 82 | 1016.0 |
| 20260901082517 | 60 | 76 | 1.0 | 4.0 | 0.00 | 0.12 | 0.12 | 82 | 1016.0 |
| 20260901082020 | 60 | 76 | 0.0 | 4.0 | 0.00 | 0.12 | 0.12 | 81 | 1016.1 |
| 20260901081533 | 60 | 76 | 1.0 | 4.0 | 0.00 | 0.12 | 0.12 | 81 | 1016.1 |
| 20260901081016 | 60 | 0 | 1.0 | 3.0 | 0.00 | 0.12 | 0.12 | 81 | 1016.2 |
| 20260901080518 | 60 | 77 | 1.0 | 3.0 | 0.00 | 0.12 | 0.12 | 81 | 1016.3 |
| 20260901080032 | 60 | 0 | 0.0 | 3.0 | 0.01 | 0.12 | 0.12 | 80 | 1016.2 |
| 20260901075516 | 60 | 0 | 1.0 | 3.0 | 0.02 | 0.12 | 0.12 | 80 | 1016.3 |
| 20260901075016 | 60 | 81 | 0.0 | 2.0 | 0.02 | 0.12 | 0.12 | 79 | 1016.4 |
| 20260901074535 | 60 | 0 | 0.0 | 7.0 | 0.03 | 0.12 | 0.12 | 79 | 1016.8 |
| 20260901074018 | 60 | 0 | 0.0 | 7.0 | 0.04 | 0.12 | 0.12 | 79 | 1016.1 |
| 20260901073519 | 60 | 57 | 2.0 | 6.0 | 0.05 | 0.12 | 0.12 | 78 | 1015.4 |
| 20260901073045 | 61 | 46 | 1.0 | 6.0 | 0.07 | 0.12 | 0.12 | 77 | 1015.8 |
| 20260901072519 | 61 | 57 | 2.0 | 7.0 | 0.09 | 0.12 | 0.12 | 76 | 1015.9 |